Regional Weather Roundup
Issued by NWS

Home | Current Version | Previous Version | Text Only | Print | Product List | Glossary On
Versions: 1 2 3 4 5 6 7 8 9 10 11 12 13 14 15 16 17 18 19 20 21 22 23 24 25 26 27 28 29 30 31 32 33 34 35 36 37 38 39 40 41 42 43 44 45 46 47 48 49 50
000
ASUS43 KMKX 041100
RWRWI

WISCONSIN REGIONAL WEATHER ROUNDUP
NATIONAL WEATHER SERVICE MILWAUKEE/SULLIVAN WI
600 AM CDT SAT JUL 04 2015

NOTE: "FAIR" INDICATES FEW OR NO CLOUDS BELOW 12,000 FEET WITH NO
SIGNIFICANT WEATHER AND/OR OBSTRUCTIONS TO VISIBILITY.

WIZ001-002-006>008-014>016-023>028-041200-
NORTHWEST WISCONSIN

CITY           SKY/WX    TMP DP  RH WIND       PRES   REMARKS
SUPERIOR ARPT  CLEAR     59  57  94 NE7       29.95S
ASHLAND        FOG       51  51 100 CALM      29.95R VSB 1/2
HAYWARD        MOCLDY    52  51  97 CALM      29.96R FOG
SIREN          FOG       54  53  97 CALM      29.94S VSB 1/4
CUMBERLAND     FOG       55  54  94 CALM      29.95R VSB<1/4
RICE LAKE      FOG       57  56  96 CALM      29.96R VSB<1/4
CHETEK           N/A     58  58 100 E5        29.95R FOG
LADYSMITH      CLEAR     54  53  95 CALM      29.97R FOG
EAU CLAIRE     NOT AVBL
MENOMONIE      CLEAR     59  58  96 CALM      29.95R
NEW RICHMOND   CLEAR     57  56  99 CALM      29.95R FOG
OSCEOLA        PTCLDY    57  57 100 CALM      29.96S
$$

WIZ003>005-009-010-017-018-041200-
NORTH CENTRAL WISCONSIN

CITY           SKY/WX    TMP DP  RH WIND       PRES   REMARKS
MANITOWISH WTR FOG       50  50 100 CALM      29.96R VSB<1/4
ARBOR VITAE    FOG       55  53  95 CALM      29.96R VSB 1/2
WOODRUFF       FOG       55  53  95 CALM      29.96R VSB 1/2
RHINELANDER    FOG       51  51 100 CALM      29.98R VSB 1/4
EAGLE RIVER    FOG       51  51 100 CALM      29.96R VSB<1/4
LAND O LAKES   FOG       49  49 100 CALM      29.97S VSB 1/4
PHILLIPS       CLOUDY    52  52 100 CALM      29.96R FOG
TOMAHAWK       FOG       51  51  97 CALM      29.96S VSB 1/4
MEDFORD        FOG       53  53  99 CALM      29.96R VSB 1/4
MERRILL        FOG       51  51 100 CALM      29.96R VSB 1/4
$$

WIZ029-030-035-036-043>047-041200-
CENTRAL WISCONSIN

CITY           SKY/WX    TMP DP  RH WIND       PRES   REMARKS
WAUSAU         CLEAR     57  55  93 E3        29.94R
MOSINEE        MOCLDY    55  55 100 CALM      29.97R
MARSHFIELD     CLEAR     59  55  87 CALM      29.96R
STEVENS POINT  CLEAR     53  51  95 CALM      29.96R
WAUPACA        CLEAR     58  57  97 CALM      29.96R
WAUTOMA        NOT AVBL
WISC RAPIDS    CLOUDY    60  57  89 CALM      29.97R
CAMP DOUGLAS   CLEAR     54  54 100 SE2       29.95S FOG
$$

WIZ011>013-019>022-031-037>040-048>050-041200-
NORTHEAST WISCONSIN

CITY           SKY/WX    TMP DP  RH WIND       PRES   REMARKS
ANTIGO         CLEAR     53  53 100 CALM      29.96R FOG
SHAWANO        CLEAR     60  58  91 W3        29.94R
OCONTO         MOCLDY    55  55 100 CALM      29.92R
STURGEON BAY   PTCLDY    61  55  82 CALM      29.95R
GREEN BAY      CLEAR     60  57  89 W3        29.94R
MANITOWOC      NOT AVBL
APPLETON       PTCLDY    63  59  88 W9        29.95R
CLINTONVILLE   CLEAR     57  55  94 CALM      29.94R
OSHKOSH        MOCLDY    64  58  80 W5        29.95R
$$

WIZ032>034-041-042-053>061-041200-
SOUTHWEST WISCONSIN

CITY           SKY/WX    TMP DP  RH WIND       PRES   REMARKS
LA CROSSE      FAIR      62  61  96 S8        29.96R
SPARTA         CLOUDY    55  54  95 CALM      29.97R
VIROQUA        FAIR      59  59 100 SW6       29.98R
BOSCOBEL       FOG       56  54  93 CALM      29.98R VSB 1/4
PRAIRIE DU CHI CLEAR     56  55  94 CALM      29.98R
PLATTEVILLE    CLEAR     58  55  89 CALM      29.99R
$$

WIZ056-057-062-063-064-067-068-041200-
SOUTH CENTRAL WISCONSIN

CITY           SKY/WX    TMP DP  RH WIND       PRES   REMARKS
REEDSBURG      CLEAR     55  55  99 CALM      29.97R
BARABOO/DELLS  CLEAR     57  54  89 CALM      29.97R
LONE ROCK      CLOUDY    54  52  94 CALM      29.99R FOG
MINERAL POINT  CLEAR     59  54  82 W3        29.98S
MADISON        CLEAR     56  54  93 CALM      29.97R
MIDDLETON      CLEAR     56  55  97 CALM      29.98R
WATERTOWN      FAIR      53  53 100 CALM      29.96R
MONROE         CLEAR     61  52  72 W13       29.98R
JANESVILLE     CLEAR     55  54  94 CALM      29.97R
$$

WIZ051-052-058>065-066-070>072-041200-
SOUTHEAST WISCONSIN

CITY           SKY/WX    TMP DP  RH WIND       PRES   REMARKS
MILWAUKEE      PTCLDY    62  55  77 W3        29.97R
WAUKESHA       CLEAR     54  52  94 CALM      29.98R
MILWAUKEE/TIMM CLEAR     57  52  82 CALM      29.97R
RACINE         CLEAR     60  54  80 W7        29.98R
BURLINGTON     CLEAR     50  49  99 CALM      29.97S FOG
KENOSHA        CLEAR     55  53  93 W5        29.97R FOG
FOND DU LAC    CLEAR     61  57  87 SW5       29.96R
SHEBOYGAN      MOCLDY    61  56  83 SW7       29.95R
WEST BEND      PTCLDY    55  52  88 CALM      29.96R
JUNEAU         CLEAR     55  53  94 SW5       29.97R
$$

LSZ147-162-041200-
LAKE SUPERIOR

STATION/POSITION TIME  TEMP    WIND        PRES    WAVE
                       AIR SEA DIR/SP/G            HT/PER
                 (UTC) (F)     (DEG/KT/KT) (MB)    (FT/S)
W MID LAKE BUOY  0950   40 38   10/  4/  4 1014.3R   0
DEVILS ISLAND    1000   57      30/  4/  5 1014.2R
SAXON HARBOR     1000   57        CALM     1013.5
$$

LMZ867-665-643>646-041200-
LAKE MICHIGAN

STATION/POSITION TIME  TEMP    WIND        PRES    WAVE
                       AIR SEA DIR/SP/G            HT/PER
                 (UTC) (F)     (DEG/KT/KT) (MB)    (FT/S)
CHAMBERS ISLAND  1000   62     320/  5/  7 1012.9R
N MID LAKE BUOY  0950   49 43   CALM  /  2 1012.9R   1/ 4
NORTHPORT PIER   1000   62     330/  4/  6 1012.9R
SISTER BAY       1044   62        CALM       N/A
ALGOMA LAKESHORE 0926          300/  1/  4   N/A
KEWAUNEE LAKESHO 1000   62     300/  5/  7 1012.2R
SHEBOYGAN LAKESH 1000   64     260/ 11/ 12 1013.4R
PORT WASHINGTON  1000   63     290/  7/  9 1014.2
ATWATER BUOY     1000   63 60  240/  6/  8 1015.1F
MILWAUKEE LAKESH 1000   65     270/  7/  9   N/A
KENOSHA   LAKESH 1000   63     250/  7/  8 1014.2R
$$

TC  - TEMPERATURE IN CELSIUS
VSB - VISIBILITY IN STATUTE MILES
WCI - WIND CHILL INDEX
HX  - HEAT INDEX




USA.gov is the U.S. government's official web portal to all federal, state and local government web resources and services.